Regional Weather Roundup
Issued by NWS

Home | Current Version | Previous Version | Graphics & Text | Print | Product List | Glossary On
Versions: 1 2 3 4 5 6 7 8 9 10 11 12 13 14 15 16 17 18 19 20 21 22 23 24 25 26 27 28 29 30 31 32 33 34 35 36 37 38 39 40 41 42 43 44 45 46 47 48 49 50
594
ASUS44 KJAN 311510
RWRMS

MISSISSIPPI HOURLY WEATHER ROUNDUP
NATIONAL WEATHER SERVICE JACKSON MS
1000 AM CDT THU JUL 31 2014

NOTE: "FAIR: INDICATES FEW OR NO CLOUDS BELOW 12,000 FEET WITH NO
SIGNIFICANT WEATHER AND/OR OBSTRUCTIONS TO VISIBILITY.

MSZ001>002-007>008-010>013-018>021-025>028-034>036-311600-
NORTHWEST MISSISSIPPI

CITY           SKY/WX    TMP DP  RH WIND       PRES   REMARKS
CLEVELAND      PTSUNNY   73  68  84 E5        30.08S
GREENWOOD      CLOUDY    73  66  78 CALM      30.08F
GREENVILLE     CLOUDY    73  68  84 NE3       30.07F
GRENADA        PTSUNNY   72  64  78 N3        30.10S
OLIVE BRANCH   PTSUNNY   72  72 100 N7        30.11F
OXFORD         FAIR      70  64  83 CALM      30.12F
TUNICA         CLOUDY    70  64  83 W3        30.11S
$$

MSZ003>006-009-014>017-022>024-029>033-037>039-311600-
NORTHEAST MISSISSIPPI

CITY           SKY/WX    TMP DP  RH WIND       PRES   REMARKS
BELMONT        FAIR      72  65  78 CALM      30.11R
COLUMBUS AFB   CLOUDY    73  63  68 NE1       30.09S
CORINTH          N/A     72  64  78 CALM      30.10S
GOLDN TRIANGLE PTSUNNY   73  63  68 N3        30.09F
STARKVILLE     PTSUNNY   73  64  73 CALM      30.09S
TUPELO         CLOUDY    75  63  66 CALM      30.09S
$$

MSZ040-058-311600-
CENTRAL MISSISSIPPI

CITY           SKY/WX    TMP DP  RH WIND       PRES   REMARKS
JACKSON INTL   CLOUDY    75  65  70 CALM      30.09S
JACKSON HAWKNS CLOUDY    74  63  68 CALM      30.09S
MERIDIAN KEY   PTSUNNY   78  60  53 CALM      30.08S
MERIDIAN NAS   CLOUDY    77  62  59 CALM      30.08S
RAYMOND        FAIR      72  66  83 CALM      30.09S
VICKSBURG      LGT RAIN  74  67  78 E9        30.07F
$$

MSZ059>079-311600-
SOUTH MISSISSIPPI

CITY           SKY/WX    TMP DP  RH WIND       PRES   REMARKS
COLUMBIA       FAIR      77  64  65 NE3       30.06S
HATTIESBURG    PTSUNNY   76  64  66 NE3       30.08S
MCCOMB         CLOUDY    74  62  66 NE3       30.08S
NATCHEZ        CLOUDY    73  63  68 E6        30.08S
PINE BELT      PTSUNNY   75  61  60 NE3       30.09S
$$

MSZ080>082-311600-
COASTAL MISSISSIPPI

CITY           SKY/WX    TMP DP  RH WIND       PRES   REMARKS
BAY ST LOUIS   MOSUNNY  N/A N/A N/A CALM      30.06S
BILOXI         MOSUNNY   81  63  53 NE5       30.05S
PASCAGOULA     MOSUNNY   81  65  58 NE3       30.05S
GULFPORT       MOSUNNY   85  61  44 CALM      30.05S
$$



USA.gov is the U.S. government's official web portal to all federal, state and local government web resources and services.